Torna al catalogo

STARLINK-33900

AttivoComunicazioniVLEO
NORAD 63800·PAYLOAD·🇺🇸 United States

Lanciato May 2, 2025 da Cape Canaveral Space Force Station

Loading…

Prossimi Passaggi (prossime 24 ore)

TLE

AggiornatoSource: CelesTrak SupGP

Epoca: Sep 15, 2026, 03:18 UTC

1 63800C 25091AB  26258.13798611 -.00024533  00000+0 -88827-3 0  2585
2 63800  43.0044  62.5010 0001634 270.1253 218.0054 15.27601947    15

Traccia STARLINK-33900 in tempo reale con AllMySat

Download on the App Store